EW7336 Weather Reports


time (UTC)temp
C
wind
direction
speed
KPH
gust
KPH
rain 1hr
cm
rain 24hr
cm
rain mn
cm
humidity
%
barometer
mb
20260504214515 23 196 14.5 30.6 0.00 0.05 0.05 46 1005.3
20260504213007 23 178 1.6 6.4 0.00 0.05 0.05 55 1005.2
20260504211504 22 169 1.6 6.4 0.00 0.05 0.05 55 1005.3
20260504210002 22 199 1.6 6.4 0.00 0.05 0.05 54 1005.7
20260504204637 22 202 4.8 9.7 0.00 0.05 0.05 53 1006.3
20260504203054 23 227 8.0 16.1 0.00 0.05 0.05 55 1006.6
20260504201551 22 254 8.0 22.5 0.00 0.05 0.05 55 1006.8
20260504200054 22 225 8.0 19.3 0.00 0.05 0.05 57 1006.8
20260504194550 21 214 6.4 12.9 0.03 0.05 0.05 66 1007.1
20260504193042 19 220 4.8 16.1 0.03 0.05 0.05 72 1007.2
20260504191543 18 216 3.2 9.7 0.05 0.05 0.05 76 1007.4
20260504190045 17 206 3.2 9.7 0.05 0.05 0.05 79 1007.6
20260504184541 17 217 3.2 8.0 0.03 0.03 0.03 78 1007.8
20260504183037 17 211 4.8 19.3 0.03 0.03 0.03 76 1007.1
20260504181538 17 204 4.8 16.1 0.00 0.00 0.00 73 1008.3
20260504180035 18 263 6.4 16.1 0.00 0.00 0.00 69 1008.2
20260504174538 18 183 8.0 30.6 0.00 0.00 0.00 66 1008.0
20260504173034 19 207 11.3 25.7 0.00 0.00 0.00 67 1007.8
20260504171541 19 227 12.9 22.5 0.00 0.00 0.00 65 1007.7
20260504081559 11 196 0.0 8.0 0.00 0.00 0.00 71 1009.7
20260504050024 11 191 1.6 4.8 0.00 0.00 0.00 72 1011.7
20260504044525 11 186 1.6 4.8 0.00 0.00 0.00 71 1011.7
20260504043021 11 187 0.0 4.8 0.00 0.00 0.00 71 1011.8
20260504041517 11 183 1.6 4.8 0.00 0.00 0.00 71 1011.9
20260504040017 11 183 0.0 6.4 0.00 0.00 0.00 70 1012.1
20260504034513 11 182 1.6 4.8 0.00 0.00 0.00 71 1012.3
20260504033013 11 182 0.0 3.2 0.00 0.00 0.00 70 1012.4
20260504031514 11 182 0.0 4.8 0.00 0.00 0.00 69 1012.5
20260504030013 12 182 0.0 4.8 0.00 0.00 0.00 67 1012.6
20260504024511 12 182 1.6 6.4 0.00 0.00 0.00 66 1012.6
20260504023010 12 216 1.6 6.4 0.00 0.00 0.00 67 1012.7
20260504021509 12 217 1.6 4.8 0.00 0.00 0.00 67 1012.6
20260504020015 12 217 1.6 4.8 0.00 0.00 0.00 67 1012.4
20260504014509 12 217 0.0 3.2 0.00 0.00 0.00 66 1012.4
20260504013009 12 218 1.6 6.4 0.00 0.00 0.00 65 1012.4
20260504011507 12 221 3.2 8.0 0.00 0.00 0.00 63 1012.4
20260504010006 13 191 3.2 9.7 0.00 0.00 0.00 62 1012.3
20260504004506 13 201 4.8 14.5 0.00 0.00 0.00 61 1012.1
20260504003003 13 225 8.0 14.5 0.00 0.00 0.00 63 1012.2
20260504001503 13 194 4.8 11.3 0.00 0.00 0.00 63 1012.5
20260503234559 14 198 3.2 9.7 0.00 0.00 0.00 55 1012.5
20260503233057 14 180 3.2 12.9 0.00 0.00 0.00 52 1012.7
20260503231555 15 167 8.0 16.1 0.00 0.00 0.00 49 1012.8
20260503230100 15 186 6.4 16.1 0.00 0.00 0.00 48 1012.8
20260503224551 15 227 6.4 16.1 0.00 0.00 0.00 49 1013.0
20260503223050 15 205 6.4 14.5 0.00 0.00 0.00 50 1013.1
20260503221548 15 182 4.8 14.5 0.00 0.00 0.00 48 1013.1
20260503220051 16 217 6.4 16.1 0.00 0.00 0.00 47 1013.5